Location: Wiesbaden
(50.0830°N, 8.2500°E)
Time: 20:42:36
(UTC+02:00)

ISS - Pass Details

Date: 24 April 2026
Orbit: 414 x 424 km, 51.6° (Epoch: 12 May)

Event Time Altitude Azimuth Distance (km) Brightness Sun altitude
Exits shadow 03:58:26 21° 140° (SE) 999 -2.0 -18.7°
Drops below altitude 10° 04:00:58 10° 91° (E) 1,502 -0.4 -18.4°
Sets 04:03:24 0° 75° (ENE) 2,373 1.0 -18.2°
